Location: Hawks Ness
(60.2333°N, 1.1667°W)
Time: 17:03:36
(UTC+00:00)

Cosmos 468 Rocket - Pass Details

Date: 22 October 2019
Orbit: 745 x 779 km, 74.0° (Epoch: 14 November)

Event Time Altitude Azimuth Distance (km) Brightness Sun altitude
Exits shadow 04:00:10 - 327° (NNW) 2,767 6.7 -22.8°
Reaches altitude 10° 04:01:23 10° 328° (NNW) 2,298 6.3 -22.7°
Maximum altitude 04:06:36 73° 54° (NE) 790 4.1 -22.1°
Drops below altitude 10° 04:11:44 10° 140° (SE) 2,268 6.7 -21.5°
Sets 04:14:05 0° 142° (SE) 3,186 7.5 -21.2°
